Location: Home
(42.5358°N, 72.7383°W)
Time: 14:53:19
(UTC-05:00)

Vanguard 3 - Pass Details

Date: 01 December 2021
Orbit: 508 x 3260 km, 33.3° (Epoch: 20 January)

Event Time Altitude Azimuth Distance (km) Brightness Sun altitude
Rises 04:51:13 0° 242° (WSW) 7,191 - -23.4°
Exits shadow 04:55:21 - 239° (WSW) 6,366 11.3 -22.6°
Reaches altitude 10° 04:56:13 10° 238° (WSW) 6,195 11.2 -22.4°
Maximum altitude 05:14:55 55° 168° (SSE) 3,172 10.2 -19.1°
Drops below altitude 10° 05:27:57 10° 96° (E) 4,473 12.2 -16.7°
Sets 05:30:54 0° 92° (E) 5,156 12.8 -16.2°
